Hourly Data Report for June 08, 2018

LONDON CS
ONTARIO
Current Station Operator: ECCC - MSC

43°02'00.000" N
81°09'00.000" W
278.00 m
6144478
71622
WSN

Download Data

Hourly Data (June 2018)
Hourly Data Report for June 8, 2018
TIME Temp Definition
°C
Dew Point Definition
°C
Rel Hum Definition
%
Wind Dir Definition
10's deg

Wind Spd Definition
km/h
Visibility Definition
km
Stn Press Definition
kPa
Hmdx Definition


Wind Chill Definition


Weather Definition


00:00 12.9 10.7 87 LegendMM LegendMM   98.70     LegendNANA
01:00 14.2 12.2 88 LegendMM LegendMM   98.71     LegendNANA
02:00 13.1 11.4 89 LegendMM LegendMM   98.70     LegendNANA
03:00 13.2 11.4 89 LegendMM LegendMM   98.71     LegendNANA
04:00 13.6 11.5 87 LegendMM LegendMM   98.77     LegendNANA
05:00 13.8 10.9 82 LegendMM LegendMM   98.81     LegendNANA
06:00 14.3 11.2 82 LegendMM LegendMM   98.87     LegendNANA
07:00 15.5 12.1 80 LegendMM LegendMM   98.95     LegendNANA
08:00 17.8 11.6 67 LegendMM LegendMM   99.01     LegendNANA
09:00 20.3 12.4 61 LegendMM LegendMM   98.99     LegendNANA
10:00 21.8 10.2 48 LegendMM LegendMM   98.99     LegendNANA
11:00 23.3 10.5 44 LegendMM LegendMM   98.96 25   LegendNANA
12:00 24.2 9.5 39 LegendMM LegendMM   98.95 25   LegendNANA
13:00 24.9 10.2 40 LegendMM LegendMM   98.93 26   LegendNANA
14:00 25.3 9.8 38 LegendMM LegendMM   98.90 26   LegendNANA
15:00 26.4 10.5 37 LegendMM LegendMM   98.87 28   LegendNANA
16:00 26.5 10.2 36 LegendMM LegendMM   98.86 28   LegendNANA
17:00 26.4 11.5 40 LegendMM LegendMM   98.83 28   LegendNANA
18:00 25.7 10.2 38 LegendMM LegendMM   98.82 27   LegendNANA
19:00 24.7 11.1 42 LegendMM LegendMM   98.81 27   LegendNANA
20:00 21.0 12.6 59 LegendMM LegendMM   98.84     LegendNANA
21:00 19.2 12.4 65 LegendMM LegendMM   98.89     LegendNANA
22:00 17.8 12.6 72 LegendMM LegendMM   98.93     LegendNANA
23:00 16.9 12.9 77 LegendMM LegendMM   98.92     LegendNANA

Notes on Data Quality.

Legend

  • E = Estimated
  • M = Missing
  • NA = Not Available*
  • [empty] = Indicates an unobserved value
Date modified: